Hourly Data Report for August 17, 2006

TORONTO CITY
ONTARIO

43°40'00.000" N
79°24'00.000" W
112.50 m
6158355
71508
XTO

Download Data

Hourly Data (August 2006)
Hourly Data Report for August 17, 2006
TIME
LST
Temp Definition
°C
Dew Point Definition
°C
Rel Hum Definition
%
Precip. Amount Definition
mm

Wind Dir Definition
10's deg

Wind Spd Definition
km/h
Visibility Definition
km
Stn Press Definition
kPa
Hmdx Definition


Wind Chill Definition


Weather Definition


00:00 20.5 16.8 79   LegendMM LegendMM   100.86 26   LegendNANA
01:00 20.2 16.9 81   LegendMM LegendMM   100.88 25   LegendNANA
02:00 19.5 17.1 86   LegendMM LegendMM   100.89     LegendNANA
03:00 18.8 17.0 89   LegendMM LegendMM   100.90     LegendNANA
04:00 18.3 16.8 91   LegendMM LegendMM   100.94     LegendNANA
05:00 17.7 16.2 91   LegendMM LegendMM   101.01     LegendNANA
06:00 18.9 16.1 84   LegendMM LegendMM   101.06     LegendNANA
07:00 19.7 15.5 77   LegendMM LegendMM   101.06     LegendNANA
08:00 21.6 17.7 78   LegendMM LegendMM   101.05 27   LegendNANA
09:00 22.4 18.8 80   LegendMM LegendMM   101.04 29   LegendNANA
10:00 23.0 19.2 79   LegendMM LegendMM   101.02 30   LegendNANA
11:00 24.1 17.1 65   LegendMM LegendMM   100.99 29   LegendNANA
12:00 25.1 16.1 57   LegendMM LegendMM   100.94 30   LegendNANA
13:00 25.2 13.1 47   LegendMM LegendMM   100.90 28   LegendNANA
14:00 25.8 14.5 50   LegendMM LegendMM   100.85 29   LegendNANA
15:00 26.2 14.9 50   LegendMM LegendMM   100.80 30   LegendNANA
16:00 25.3 15.4 54   LegendMM LegendMM   100.77 30   LegendNANA
17:00 23.7 15.1 59   LegendMM LegendMM   100.75 28   LegendNANA
18:00 23.1 15.6 63   LegendMM LegendMM   100.73 27   LegendNANA
19:00 22.7 15.2 63   LegendMM LegendMM   100.72 27   LegendNANA
20:00 22.4 16.1 68   LegendMM LegendMM   100.69 27   LegendNANA
21:00 22.2 17.3 74   LegendMM LegendMM   100.72 28   LegendNANA
22:00 22.1 18.7 81   LegendMM LegendMM   100.71 29   LegendNANA
23:00 22.2 19.0 82   LegendMM LegendMM   100.71 29   LegendNANA

Notes on Data Quality.

Legend

  • E = Estimated
  • M = Missing
  • NA = Not Available*
  • [empty] = Indicates an unobserved value
Date modified: